STARLINK-1585, 46117

Orbit data source: Space-Track

STARLINK-1585, 46117 is a payload satellite owned by SpaceX/Seattle (US) in LEO that was launched on Tue, 18 Aug 2020 UTC via an FALCON 9 launch vehicle from the Air Force Eastern Test Range (AFETR). Payload-class satellites include a variety of spacecraft equipped with specific instruments for various scientific and technological missions. These include communications satellites like Starlink; space stations such as the ISS; scientific satellites like the Hubble; Earth observation satellites from companies like Planet Labs, Umbra, and HawkEye 360; GPS; miniature CubeSats for education and research; and military/defense satellites.

Loading next visibility...
Identifier
46117, 2020-057A
Orbit
LEO
Country
Flag of USUS
Related business
Manufacturer
SpaceX/Seattle
Mission
Partially operational Commercial Communications
Bus & Motor
STARLINK, Unknown motor
Mass
260 kg wet, ~248 kg dry
Launch date (UTC)
2020-08-18 (5 years ago)
Launch vehicle
FALCON 9
Launch site
Air Force Eastern Test Range (AFETR)
Object type
Payload
Rocket body
Debris
Shape & HBR
Box + 1 Pan, 10.1 m
Radar Cross Section
13.562 m², Large (>1 m²)

Expand to show TLE details & history
Last TLE update: 8 hours ago

TLE from 8 hours ago
0 STARLINK-1585
1 46117U 20057A   25310.29567598  .00038790  00000-0  95031-3 0  9993
2 46117  53.0538 126.5258 0001075 110.2764 249.8356 15.40392193287807
Epoch: 2025-11-06T07:05Z
TLE epoch observation values (Epoch: 2025-11-06T07:05:46.404Z)
Latitude
0.00001°
Longitude
-25.67358°
Altitude
446.096 km
Speed
7.646 km/s
True Right ascension
08h 26m 06s
True Declination
0° 00' 00"
Sunlit
Object was in daylight at epoch
Visualization orbit readout
Latitude
Unknown
Longitude
Unknown
Altitude
Unknown
Speed
Unknown
Apparent Right ascension
Unknown
Apparent Declination
Unknown
Sunlit
N/A
Visualization observer readout
Local Sidereal Time
11:20:44
Azimuth
Unknown
Elevation
Unknown
Doppler factor
Unknown
Orbital elements
Apogee altitude
445.959 km
Perigee altitude
444.492 km
Semi-major axis
6,823.363 km
Eccentricity
0.00011
Inclination
53.0538°
RAAN
126.5258°
Arg. of periapsis
110.2764°
True anomaly
249.82404°
Mean anomaly
249.8356°
Eccentric anomaly
249.82982°
Mean motion
3.85075 °/min
Orbital period
93.49 mins
BSTAR
0.00095031
Loading maneuver chart data...
Computing Atmospheric mass density...
Loading historical data...
Loading historical data...
Loading historical data...
Loading historical data...
Loading historical data...
Loading historical data...
Loading historical data...

Documentation

Showing up to 5 results
|